Location: Newark
(60.5925°N, 45.5911°E)
Time: 13:49:25
(UTC+00:00)

ISS - Visible Passes

Search period start: 20 September 2019 00:00
Search period end: 30 September 2019 00:00
Orbit: 411 x 421 km, 51.6° (Epoch: 20 September)

Date Brightness Start Highest point End Pass type
(mag) Time Alt. Az. Time Alt. Az. Time Alt. Az.
23 Sep -1.5 17:06:41 10° SSW 17:07:32 13° S 17:07:32 13° S visible
24 Sep -1.7 16:18:46 10° S 16:20:26 13° SSE 16:21:01 13° SSE visible
25 Sep -1.4 15:31:11 10° S 15:32:10 11° SSE 15:33:10 10° SE visible
25 Sep -1.7 17:05:41 10° SW 17:07:18 17° SSW 17:07:18 17° SSW visible
26 Sep -1.9 16:17:27 10° SSW 16:19:40 17° S 16:20:37 15° SSE visible
26 Sep -1.0 17:53:23 10° SW 17:53:31 11° SW 17:53:31 11° SW visible
27 Sep -1.6 15:29:21 10° SSW 15:31:20 15° SSE 15:33:19 10° SE visible
27 Sep -1.8 17:04:56 10° SW 17:06:47 17° SSW 17:06:47 17° SSW visible
28 Sep -1.9 16:16:32 10° SW 16:18:52 18° S 16:20:02 15° SSE visible
29 Sep -1.7 15:28:12 10° SW 15:30:30 18° S 15:32:49 10° SE visible
29 Sep -1.5 17:04:23 10° SW 17:06:09 15° SSW 17:06:09 15° SSW visible
